Location: Gradaro
(45.0833°N, 10.8833°E)
Time: 23:32:25
(UTC+00:00)

Cosmos 2263 Rocket - Pass Details

Date: 20 April 2021
Orbit: 824 x 848 km, 71.0° (Epoch: 15 May)

Event Time Altitude Azimuth Distance (km) Brightness Sun altitude
Exits shadow 21:08:55 22° 63° (ENE) 1,729 3.7 -26.3°
Drops below altitude 10° 21:11:19 10° 44° (NE) 2,433 4.7 -26.6°
Sets 21:13:59 0° 35° (NE) 3,372 5.6 -26.8°
